Date String (YYYY-MM-DD hh:mm:ss) UTC,Instrument flags,Ambient pressure (hPa),Sample flow (lpm),Bypass flow (lpm),Sample temperature (°C),Ambient temperature (°C),ASC tube jacket temperature (°C),LED temperature (°C),Box temperature (°C),Sample RH (%),Span deviation,Mass concentration (μg/m³),Mass concentration (μg/m³),Mass concentration (μg/m³)
DateTimeUTC,F1_M11,P_M11,Q1_M11,Q2_M11,T1_M11,T2_M11,T3_M11,T4_M11,T5_M11,U1_M11,ZSPAN_M11,X0_M11,X2_M11,X1_M11
2022-02-07 16:00:00,,0833.4,4.99,0.00,23.1,22.3,00.0,31.9,24.9,09.3,0000.0,0001.40,0001.02,0000.92
2022-02-07 16:01:00,,0833.4,5.01,0.00,23.1,22.4,00.0,31.9,24.9,09.5,0000.0,0001.44,0001.05,0000.93
2022-02-07 16:02:00,,0833.4,4.98,0.00,23.1,22.4,00.0,31.9,24.9,09.5,0000.0,0001.58,0001.07,0000.94
2022-02-07 16:03:00,,0833.4,5.02,0.00,23.1,22.4,00.0,32.0,24.9,09.3,0000.0,0001.50,0001.06,0000.94
2022-02-07 16:04:00,,0833.4,5.00,0.00,23.1,22.4,00.0,32.0,25.0,09.4,0000.0,0001.43,0001.05,0000.94
2022-02-07 16:05:00,,0833.4,4.99,0.00,23.1,22.4,00.0,32.0,25.0,09.2,0000.0,0001.51,0001.01,0000.90
2022-02-07 16:06:00,,0833.4,5.00,0.00,23.1,22.5,00.0,32.0,25.0,09.2,0000.0,0001.47,0000.97,0000.85
2022-02-07 16:07:00,,0833.4,4.99,0.00,23.2,22.5,00.0,32.0,25.0,08.9,0000.0,0001.72,0000.96,0000.82
2022-02-07 16:08:00,,0833.4,4.99,0.00,23.2,22.5,00.0,32.0,25.0,08.8,0000.0,0002.03,0000.94,0000.79
2022-02-07 16:09:00,,0833.4,5.01,0.00,23.2,22.5,00.0,32.0,25.0,08.8,0000.0,0002.04,0000.91,0000.76
2022-02-07 16:10:00,,0833.5,4.99,0.00,23.2,22.5,00.0,32.1,25.0,08.7,0000.0,0002.02,0000.89,0000.72
2022-02-07 16:11:00,,0833.4,4.99,0.00,23.2,22.5,00.0,32.1,25.1,08.7,0000.0,0002.10,0000.89,0000.68
2022-02-07 16:12:00,,0833.4,5.01,0.00,23.2,22.5,00.0,32.1,25.1,08.6,0000.0,0002.20,0000.92,0000.67
2022-02-07 16:13:00,,0833.4,5.00,0.00,23.2,22.5,00.0,32.1,25.1,08.7,0000.0,0002.09,0000.91,0000.67
2022-02-07 16:14:00,,0833.4,4.99,0.00,23.2,22.5,00.0,32.1,25.1,09.0,0000.0,0002.09,0000.92,0000.66
2022-02-07 16:15:00,,0833.4,5.01,0.00,23.3,22.5,00.0,32.1,25.1,09.0,0000.0,0002.57,0000.96,0000.66
2022-02-07 16:16:00,,0833.3,4.98,0.00,23.3,22.5,00.0,32.1,25.1,09.2,0000.0,0003.52,0000.98,0000.66
2022-02-07 16:17:00,,0833.3,5.01,0.00,23.3,22.5,00.0,32.2,25.1,09.1,0000.0,0003.47,0000.97,0000.66
2022-02-07 16:18:00,,0833.4,4.99,0.00,23.3,22.5,00.0,32.2,25.1,09.3,0000.0,0003.25,0000.94,0000.65
2022-02-07 16:19:00,,0833.3,4.99,0.00,23.3,22.6,00.0,32.2,25.1,09.2,0000.0,0002.79,0000.91,0000.64
2022-02-07 16:20:00,,0833.3,5.02,0.00,23.3,22.6,00.0,32.2,25.1,09.1,0000.0,0002.77,0000.91,0000.64
2022-02-07 16:21:00,,0833.2,4.99,0.00,23.3,22.6,00.0,32.2,25.1,09.0,0000.0,0002.73,0000.89,0000.64
2022-02-07 16:22:00,,0833.2,5.00,0.00,23.3,22.6,00.0,32.2,25.1,09.1,0000.0,0002.69,0000.88,0000.64
2022-02-07 16:23:00,,0833.2,5.00,0.00,23.3,22.6,00.0,32.2,25.1,09.2,0000.0,0002.58,0000.83,0000.64
2022-02-07 16:24:00,,0833.1,5.01,0.00,23.3,22.6,00.0,32.2,25.1,09.1,0000.0,0002.56,0000.83,0000.65
2022-02-07 16:25:00,,0833.2,4.99,0.00,23.4,22.7,00.0,32.2,25.1,09.3,0000.0,0002.64,0000.85,0000.65
2022-02-07 16:26:00,,0833.2,5.01,0.00,23.4,22.7,00.0,32.2,25.2,09.4,0000.0,0002.18,0000.82,0000.66
2022-02-07 16:27:00,,0833.2,5.00,0.00,23.4,22.7,00.0,32.2,25.2,09.2,0000.0,0001.13,0000.80,0000.67
2022-02-07 16:28:00,,0833.1,5.00,0.00,23.4,22.7,00.0,32.3,25.2,09.0,0000.0,0001.20,0000.84,0000.69
2022-02-07 16:29:00,,0833.1,5.00,0.00,23.4,22.7,00.0,32.3,25.2,09.3,0000.0,0001.33,0000.88,0000.70
2022-02-07 16:30:00,,0833.1,4.99,0.00,23.4,22.7,00.0,32.3,25.2,09.2,0000.0,0001.36,0000.90,0000.71
2022-02-07 16:31:00,,0833.2,5.00,0.00,23.4,22.7,00.0,32.3,25.3,09.3,0000.0,0001.38,0000.91,0000.71
2022-02-07 16:32:00,,0833.2,4.99,0.00,23.5,22.8,00.0,32.3,25.3,09.1,0000.0,0001.38,0000.91,0000.71
2022-02-07 16:33:00,,0833.1,5.00,0.00,23.5,22.8,00.0,32.3,25.3,09.0,0000.0,0001.49,0000.92,0000.72
2022-02-07 16:34:00,,0833.1,5.01,0.00,23.5,22.8,00.0,32.3,25.3,08.7,0000.0,0002.14,0000.92,0000.72
2022-02-07 16:35:00,,0833.1,4.99,0.00,23.5,22.8,00.0,32.3,25.3,09.0,0000.0,0003.23,0000.92,0000.71
2022-02-07 16:36:00,,0833.1,5.00,0.00,23.5,22.8,00.0,32.4,25.3,08.9,0000.0,0003.41,0000.91,0000.71
2022-02-07 16:37:00,,0833.2,5.00,0.00,23.5,22.8,00.0,32.4,25.4,08.7,0000.0,0003.38,0000.91,0000.72
2022-02-07 16:38:00,,0833.2,5.00,0.00,23.5,22.8,00.0,32.4,25.4,08.7,0000.0,0003.38,0000.91,0000.72
2022-02-07 16:39:00,,0833.2,4.99,0.00,23.5,22.9,00.0,32.4,25.4,08.8,0000.0,0003.31,0000.88,0000.71
2022-02-07 16:40:00,,0833.2,5.01,0.00,23.6,22.9,00.0,32.4,25.4,09.0,0000.0,0003.35,0000.84,0000.69
2022-02-07 16:41:00,,0833.2,4.99,0.00,23.6,22.9,00.0,32.4,25.5,09.0,0000.0,0003.40,0000.82,0000.68
2022-02-07 16:42:00,,0833.2,5.00,0.00,23.6,22.9,00.0,32.4,25.5,08.8,0000.0,0004.09,0000.84,0000.69
2022-02-07 16:43:00,,0833.1,5.00,0.00,23.6,22.9,00.0,32.5,25.5,08.9,0000.0,0004.32,0000.84,0000.69
2022-02-07 16:44:00,,0833.2,5.00,0.00,23.6,22.9,00.0,32.5,25.5,09.1,0000.0,0004.20,0000.83,0000.69
2022-02-07 16:45:00,,0833.1,5.00,0.00,23.6,22.9,00.0,32.5,25.5,09.1,0000.0,0003.50,0000.82,0000.70
2022-02-07 16:46:00,,0833.1,5.00,0.00,23.6,22.9,00.0,32.5,25.5,09.0,0000.0,0002.53,0000.87,0000.71
2022-02-07 16:47:00,,0833.2,4.99,0.00,23.7,22.9,00.0,32.5,25.5,09.1,0000.0,0002.50,0000.90,0000.72
2022-02-07 16:48:00,,0833.2,5.01,0.00,23.7,23.0,00.0,32.5,25.5,09.1,0000.0,0002.57,0000.92,0000.73
2022-02-07 16:49:00,,0833.1,4.99,0.00,23.7,23.0,00.0,32.5,25.5,09.1,0000.0,0002.89,0000.95,0000.73
2022-02-07 16:50:00,,0833.1,5.02,0.00,23.7,23.0,00.0,32.6,25.5,09.0,0000.0,0002.96,0000.95,0000.74
2022-02-07 16:51:00,,0833.1,4.99,0.00,23.7,23.0,00.0,32.6,25.5,09.0,0000.0,0002.82,0000.96,0000.74
2022-02-07 16:52:00,,0833.1,4.99,0.00,23.8,23.0,00.0,32.6,25.6,08.8,0000.0,0002.80,0000.99,0000.74
2022-02-07 16:53:00,,0833.1,5.01,0.00,23.8,23.0,00.0,32.6,25.6,08.5,0000.0,0002.11,0000.96,0000.74
2022-02-07 16:54:00,,0833.1,5.01,0.00,23.8,23.1,00.0,32.6,25.6,08.2,0000.0,0001.93,0000.97,0000.72
2022-02-07 16:55:00,,0833.1,4.99,0.00,23.8,23.1,00.0,32.6,25.6,08.0,0000.0,0001.98,0000.99,0000.71
2022-02-07 16:56:00,,0833.1,5.00,0.00,23.8,23.1,00.0,32.6,25.6,08.0,0000.0,0001.92,0000.97,0000.69
2022-02-07 16:57:00,,0833.1,4.99,0.00,23.8,23.1,00.0,32.7,25.6,08.4,0000.0,0001.77,0000.90,0000.67
2022-02-07 16:58:00,,0833.0,5.01,0.00,23.9,23.1,00.0,32.7,25.7,08.3,0000.0,0001.65,0000.88,0000.64
2022-02-07 16:59:00,,0833.1,4.99,0.00,23.9,23.1,00.0,32.7,25.7,08.9,0000.0,0001.58,0000.84,0000.61
